This is the latest recevied weather packets stored in our database for station/object HS5SQI-1. If no packets are shown the sender has not sent any weather packets the latest 10 day(s).
| Time | Temp. | Humidity | Pressure | Rain* | Wind** | Luminosity | Snow |
|---|---|---|---|---|---|---|---|
| 1777536572 | 33.89° C | 91% | 964 hPa | - | - | 0 W/m² | - |
| 1777535949 | 33.33° C | 94% | 964 hPa | - | - | 0 W/m² | - |
| 1777535328 | 33.33° C | 95% | 964 hPa | - | - | 0 W/m² | - |
| 1777534706 | 33.33° C | 98% | 964 hPa | - | - | 0 W/m² | - |
| 1777534084 | 33.89° C | 92% | 965 hPa | - | - | 0 W/m² | - |
| 1777533461 | 33.89° C | 97% | 965 hPa | - | - | 0 W/m² | - |
| 1777532839 | 33.33° C | 99% | 965 hPa | - | - | 0 W/m² | - |
| 1777532216 | 33.33° C | 99% | 965 hPa | - | - | 0 W/m² | - |
| 1777531593 | 33.33° C | 99% | 966 hPa | - | - | 0 W/m² | - |
| 1777530971 | 32.78° C | 99% | 966 hPa | - | - | 0 W/m² | - |
| 1777530349 | 32.22° C | 99% | 966 hPa | - | - | 0 W/m² | - |
| 1777529726 | 31.67° C | 99% | 966 hPa | - | - | 0 W/m² | - |
| 1777529104 | 31.67° C | 99% | 967 hPa | - | - | 0 W/m² | - |
| 1777528482 | 31.67° C | 99% | 967 hPa | - | - | 0 W/m² | - |
| 1777527860 | 31.11° C | 99% | 967 hPa | - | - | 0 W/m² | - |
| 1777527238 | 31.11° C | 99% | 967 hPa | - | - | 0 W/m² | - |
| 1777526615 | 30.56° C | 99% | 967 hPa | - | - | 0 W/m² | - |
| 1777525993 | 30° C | 99% | 968 hPa | - | - | 0 W/m² | - |
| 1777525371 | 30.56° C | 99% | 968 hPa | - | - | 0 W/m² | - |
| 1777524749 | 30.56° C | 99% | 968 hPa | - | - | 0 W/m² | - |
| 1777524127 | 30° C | 99% | 968 hPa | - | - | 0 W/m² | - |
| 1777523505 | 30° C | 99% | 968 hPa | - | - | 0 W/m² | - |
| 1777522882 | 29.44° C | 99% | 968 hPa | - | - | 0 W/m² | - |
| 1777522260 | 29.44° C | 99% | 968 hPa | - | - | 0 W/m² | - |
| 1777521638 | 28.89° C | 99% | 969 hPa | - | - | 0 W/m² | - |
* Rain since midnight (hover to see other rain measurements)
** Current wind speed in m/s (hover to see current wind gust speed)